Somerville, NJ

12:43 PM EST on December 05, 2019 (GMT -0500)
Somerset

Weather History for KSMQ - November, 2019

Change the Weather History Date:

Sunday, November 17, 2019

  Actual Average Record
Temperature  
Mean Temperature 35 °F -  
Max Temperature 42 °F 52 °F 71 °F (1990)
Min Temperature 28 °F 29 °F 15 °F (1933)
Degree Days  
Heating Degree Days 30    
Moisture  
Dew Point 20 °F    
Average Humidity 51    
Maximum Humidity 70    
Minimum Humidity 38    
Precipitation  
Precipitation 0.00 in - - ()
Sea Level Pressure  
Sea Level Pressure 30.26 in    
Wind  
Wind Speed 8 mph (NNE)    
Max Wind Speed 14 mph    
Max Gust Speed 25 mph    
Visibility 10 miles    
Events      
Averages and records for this station are not official NWS values.
T = Trace of Precipitation, MM = Missing Value Source: NWS Daily Summary

Daily Weather History Graph

Daily Weather History Graph

Search for Another Location

Airport or City:

Astronomy

Nov. 17, 2019 Rise Set
Actual Time 6:47 AM EST 4:39 PM EST
Civil Twilight 6:17 AM EST 5:08 PM EST
Nautical Twilight 5:44 AM EST 5:42 PM EST
Astronomical Twilight 5:12 AM EST 6:14 PM EST
Moon 9:12 PM EST (11/17) 11:31 AM EST (11/17)
Length of Visible Light 10h 51m
Length of Day
9h 52m
Waning Gibbous, 73% of the Moon is Illuminated
Nov 17
Waning Gibbous
Nov 19
Last Quarter
Nov 26
New
Dec 4
First Quarter
Dec 12
Full

Hourly Weather History & Observations

Time (EST) Temp. Windchill Dew Point Humidity Pressure Visibility Wind Dir Wind Speed Gust Speed Precip Events Conditions
12:53 AM 28.9 °F 20.4 °F 7.0 °F 40% 30.42 in 10.0 mi NE 9.2 mph - N/A   Clear
1:53 AM 28.9 °F 21.1 °F 6.1 °F 38% 30.41 in 10.0 mi NNE 8.1 mph - N/A   Clear
2:53 AM 28.9 °F 23.9 °F 6.1 °F 38% 30.40 in 10.0 mi NNW 4.6 mph - N/A   Overcast
3:53 AM 28.9 °F 21.9 °F 6.1 °F 38% 30.38 in 10.0 mi NW 6.9 mph - N/A   Overcast
4:53 AM 30.0 °F 24.1 °F 8.1 °F 40% 30.36 in 10.0 mi NNE 5.8 mph - N/A   Overcast
5:53 AM 30.9 °F 24.3 °F 10.9 °F 43% 30.36 in 10.0 mi North 6.9 mph - N/A   Overcast
6:53 AM 30.9 °F 26.2 °F 14.0 °F 50% 30.36 in 10.0 mi NW 4.6 mph - N/A   Overcast
7:53 AM 33.1 °F 26.9 °F 15.1 °F 48% 30.35 in 10.0 mi NNE 6.9 mph - N/A   Overcast
8:53 AM 36.0 °F 27.1 °F 17.1 °F 46% 30.34 in 10.0 mi NNE 13.8 mph 25.3 mph N/A   Overcast
9:53 AM 39.0 °F 32.8 °F 19.0 °F 45% 30.32 in 10.0 mi ENE 9.2 mph 21.9 mph N/A   Mostly Cloudy
10:53 AM 39.9 °F 32.1 °F 21.9 °F 49% 30.30 in 10.0 mi NE 13.8 mph 21.9 mph N/A   Mostly Cloudy
11:53 AM 41.0 °F 33.9 °F 23.0 °F 49% 30.27 in 10.0 mi NE 12.7 mph 21.9 mph N/A   Overcast
12:53 PM 41.0 °F 34.3 °F 24.1 °F 51% 30.24 in 10.0 mi NNE 11.5 mph 20.7 mph N/A   Overcast
1:53 PM 42.1 °F 36.1 °F 26.1 °F 53% 30.21 in 10.0 mi NE 10.4 mph - N/A   Overcast
2:53 PM 42.1 °F 37.1 °F 27.0 °F 55% 30.19 in 10.0 mi NE 8.1 mph 16.1 mph N/A   Overcast
3:53 PM 42.1 °F 36.1 °F 27.0 °F 55% 30.17 in 10.0 mi NE 10.4 mph - N/A   Overcast
4:53 PM 41.0 °F 35.8 °F 27.0 °F 57% 30.16 in 10.0 mi NE 8.1 mph - N/A   Overcast
5:53 PM 41.0 °F 35.2 °F 27.0 °F 57% 30.15 in 10.0 mi NE 9.2 mph - N/A   Overcast
6:53 PM 39.9 °F 35.1 °F 27.0 °F 60% 30.14 in 10.0 mi NE 6.9 mph 19.6 mph N/A   Overcast
7:53 PM 39.9 °F 34.5 °F 28.0 °F 63% 30.12 in 10.0 mi NNE 8.1 mph - N/A   Overcast
8:53 PM 39.0 °F 33.4 °F 28.0 °F 65% 30.09 in 10.0 mi NNE 8.1 mph - N/A   Overcast
9:53 PM 39.0 °F 32.8 °F 28.9 °F 67% 30.08 in 10.0 mi NNE 9.2 mph - N/A   Overcast
10:53 PM 37.9 °F 31.5 °F 28.9 °F 70% 30.05 in 10.0 mi NNE 9.2 mph - N/A   Overcast